Weather Roundup
Issued by NWS Chicago, IL

Home | Current Version | Previous Version | Text Only | Print | Product List | Glossary On
Versions: 1 2 3 4 5 6 7 8 9 10 11 12 13 14 15 16 17 18 19 20 21 22 23 24 25 26 27 28 29 30 31 32 33 34 35 36 37 38 39 40 41 42 43 44 45 46 47 48 49 50
000
NZUS59 KLOT 291808
HRRLOT

CHICAGO AREA WEATHER ROUNDUP
NATIONAL WEATHER SERVICE CHICAGO/ROMEOVILLE IL
100 PM CDT WED MAR 29 2017

NOTE: "FAIR" INDICATES FEW OR NO CLOUDS BELOW 12,000 FEET WITH NO
SIGNIFICANT WEATHER AND/OR OBSTRUCTIONS TO VISIBILITY.

* THESE STATIONS ARE NOT UNDER NWS QUALITY CONTROL. THEY ALSO MAY NOT
  REPORT WEATHER SUCH AS PRECIPITATION OR FOG.

ILZ005-006-012>014-019>023-291900-
NORTHEAST ILLINOIS

CITY           SKY/WX    TMP DP  RH WIND       PRES   REMARKS
OHARE          CLOUDY    47  35  63 NE10      30.23F
6HR MIN TEMP:  35; 6HR MAX TEMP:  48;

MIDWAY         CLOUDY    47  36  65 NE17G24   30.23F
6HR MIN TEMP:  37; 6HR MAX TEMP:  48;

AURORA         CLOUDY    52  35  52 NE14      30.19F
6HR MIN TEMP:  37; 6HR MAX TEMP:  53;

LANSING*       MOSUNNY   50  41  70 N10       30.22F
JOLIET*        CLOUDY    56  36  47 E12       30.19F
WAUKEGAN       CLOUDY    42  36  79 NE10      30.26F
6HR MIN TEMP:  32; 6HR MAX TEMP:  43;

DUPAGE AIRPORT CLOUDY    48  37  65 E12       30.20F
6HR MIN TEMP:  35; 6HR MAX TEMP:  50;

WHEELING       CLOUDY    43  36  76 E8        30.26S
6HR MIN TEMP:  33; 6HR MAX TEMP:  43;

KANKAKEE*      MOSUNNY   55  36  48 E22       30.17F
MORRIS*        CLOUDY    54  35  47 E15       30.18F
LEWIS AIRPORT* CLOUDY    51  40  63 E16       30.19F
NORTHERLY ISL    N/A     41  37  86 N10         N/A
$$

WIZ051-052-058>065-066-070>072-291900-
SOUTHEAST WISCONSIN

CITY           SKY/WX    TMP DP  RH WIND       PRES   REMARKS
MILWAUKEE      CLOUDY    44  36  73 NE7       30.29S
6HR MIN TEMP:  33; 6HR MAX TEMP:  44;

KENOSHA*       MOSUNNY   43  34  70 E12       30.27F
RACINE*        CLOUDY    44  35  70 NE8       30.30S
WAUKESHA       MOSUNNY   43  32  65 E8        30.28F
WEST BEND      PTSUNNY   45  39  81 E7        30.29R
$$

INZ001>003-010>013-019-020-291900-
NORTHWEST INDIANA

CITY           SKY/WX    TMP DP  RH WIND       PRES   REMARKS
GARY*          PTSUNNY   46  37  71 NE8       30.24S
MICHIGAN CITY* NOT AVBL
RENSSELAER*    NOT AVBL
VALPARAISO     MOSUNNY   58  38  47 E20       30.21F
$$

LMZ740>746-291900-
SOUTHERN LAKE MICHIGAN

STATION/POSITION TIME  SKY/WX   TEMP WIND        PRES    VSBY
                                AIR  DIR/SP/G
                 (UTC)          (F)  (DEG/KT/KT) (MB)    (MI)
HARRISON CRIB    1740            39   30/ 13/ 14   N/A
BURNHAM HARBOR   1800            41   10/ 10/ 13   N/A
CALUMET HARBOR   1742            40  360/ 12/ 15 1023.6S
BURNS HARBOR     1740            42   50/  8/ 10 1024.4S
MICHIGAN CITY    1740            39   20/ 11/ 12   N/A
$$

ABBREVIATIONS USED IN REMARKS
   TC - TEMPERATURE IN CELSIUS
  WCI - WIND CHILL INDEX
   HX - HEAT INDEX
  VSB - VISIBILITY
$$




USA.gov is the U.S. government's official web portal to all federal, state and local government web resources and services.